YACHTS Weather Reports


Display with metric or nautical units.
time (UTC)temp
F
wind
direction
speed
MPH
gust
MPH
rain 1hr
in
rain 24hr
in
rain mn
in
humidity
%
barometer
mb
20260906033653 55 0 0.0 0.0 0.00 0.01 0.01 91 1015.5
20260906033140 55 0 0.0 0.0 0.00 0.01 0.01 91 1015.4
20260906032627 55 0 0.0 0.0 0.00 0.01 0.01 91 1015.3
20260906032114 56 0 0.0 0.0 0.00 0.01 0.01 91 1015.2
20260906031601 56 0 0.0 0.0 0.00 0.01 0.01 90 1015.2
20260906031048 56 0 0.0 0.0 0.00 0.01 0.01 90 1015.3
20260906030535 57 0 0.0 0.0 0.00 0.01 0.01 90 1015.3
20260906030022 57 0 0.0 0.0 0.00 0.01 0.01 90 1015.3
20260906025509 58 0 0.0 0.0 0.00 0.07 0.01 90 1015.3
20260906024956 58 0 0.0 0.0 0.00 0.07 0.01 90 1015.3
20260906024443 57 0 0.0 0.0 0.00 0.07 0.01 89 1015.4
20260906023930 57 0 0.0 0.0 0.00 0.07 0.01 89 1015.5
20260906023417 58 0 0.0 0.0 0.00 0.07 0.01 89 1015.5
20260906022904 58 0 0.0 0.0 0.00 0.07 0.01 89 1015.4
20260906022351 58 0 0.0 0.0 0.00 0.07 0.01 88 1015.5
20260906021838 59 0 0.0 0.0 0.00 0.07 0.01 88 1015.5
20260906021325 60 0 0.0 0.0 0.00 0.07 0.01 88 1015.5
20260906020812 60 0 0.0 0.0 0.00 0.07 0.01 88 1015.6
20260906020259 60 0 0.0 0.0 0.00 0.07 0.01 88 1015.6
20260906015746 60 0 0.0 0.0 0.00 0.07 0.01 88 1015.7
20260906014720 60 0 0.0 0.0 0.00 0.07 0.01 88 1015.7
20260906014207 59 0 0.0 0.0 0.00 0.07 0.01 88 1015.7
20260906013654 60 0 0.0 0.0 0.00 0.07 0.01 88 1015.8
20260906013141 60 0 0.0 0.0 0.00 0.07 0.01 88 1015.7
20260906012628 61 0 0.0 0.0 0.00 0.07 0.01 89 1015.7
20260906012115 60 0 0.0 0.0 0.00 0.07 0.01 89 1015.7
20260906011602 59 0 0.0 0.0 0.00 0.07 0.01 89 1015.8
20260906011049 59 0 0.0 0.0 0.00 0.07 0.01 89 1015.8
20260906010536 59 0 0.0 0.0 0.00 0.07 0.01 90 1015.8
20260906010023 59 0 0.0 0.0 0.00 0.07 0.01 90 1015.8
20260906005510 58 0 0.0 0.0 0.00 0.07 0.01 90 1015.7
20260906004957 59 0 0.0 2.0 0.00 0.07 0.01 90 1015.8
20260906004444 58 0 0.0 2.0 0.00 0.07 0.01 90 1015.7
20260906003931 59 253 0.0 2.0 0.00 0.07 0.01 90 1015.7
20260906003418 59 0 0.0 0.0 0.00 0.07 0.01 90 1015.6
20260906002905 59 0 0.0 4.0 0.00 0.07 0.01 90 1015.5
20260906002352 59 302 0.0 4.0 0.00 0.07 0.01 90 1015.6
20260906001839 59 317 2.0 4.0 0.00 0.07 0.01 90 1015.5
20260906001326 60 0 0.0 6.0 0.00 0.07 0.01 90 1015.5
20260906000813 60 320 0.0 6.0 0.00 0.07 0.01 90 1015.4
20260906000300 59 295 1.0 6.0 0.00 0.07 0.01 90 1015.4
20260905235747 60 326 0.0 5.0 0.00 0.07 0.01 90 1015.4
20260905235235 60 0 0.0 0.0 0.00 0.07 0.01 91 1015.4
20260905234721 59 0 0.0 6.0 0.00 0.07 0.01 91 1015.4
20260905234208 59 302 0.0 6.0 0.00 0.07 0.01 91 1015.4
20260905233655 60 292 2.0 6.0 0.00 0.07 0.01 91 1015.5
20260905233142 60 288 4.0 6.0 0.00 0.07 0.01 91 1015.6
20260905232629 61 295 4.0 6.0 0.00 0.07 0.01 91 1015.6
20260905232116 60 313 4.0 6.0 0.00 0.07 0.01 92 1015.7
20260905231603 59 0 0.0 7.0 0.00 0.07 0.01 92 1015.8
20260905231050 60 315 3.0 7.0 0.00 0.07 0.01 92 1015.8
20260905230537 60 302 4.0 7.0 0.00 0.07 0.01 92 1015.9
20260905230024 60 306 2.0 5.0 0.00 0.07 0.01 92 1015.9
20260905225511 60 0 2.0 2.0 0.00 0.08 0.01 93 1016.0
20260905224958 59 0 0.0 5.0 0.00 0.08 0.01 93 1016.0
20260905224445 58 0 2.0 5.0 0.00 0.08 0.01 93 1016.1
20260905223932 58 277 0.0 5.0 0.00 0.08 0.01 94 1016.0
20260905223419 58 323 3.0 5.0 0.00 0.08 0.01 93 1016.1
20260905222353 58 271 0.0 7.0 0.00 0.08 0.01 93 1016.3
20260905220814 59 266 5.0 8.0 0.00 0.08 0.01 93 1016.4
20260905220301 58 289 5.0 8.0 0.00 0.08 0.01 94 1016.3
20260905215748 58 277 3.0 7.0 0.00 0.08 0.01 94 1016.3
20260905215236 58 291 4.0 7.0 0.00 0.08 0.01 94 1016.3
20260905214722 58 280 5.0 7.0 0.00 0.08 0.01 94 1016.3
20260905214209 58 285 4.0 8.0 0.00 0.08 0.01 94 1016.4
20260905213656 58 267 2.0 8.0 0.00 0.08 0.01 94 1016.4
20260905213143 59 303 5.0 8.0 0.00 0.08 0.01 94 1016.4
20260905212630 58 302 3.0 7.0 0.00 0.08 0.01 94 1016.4
20260905212117 58 285 3.0 6.0 0.00 0.08 0.01 94 1016.5
20260905211604 58 305 3.0 7.0 0.00 0.08 0.01 94 1016.5
20260905211051 58 284 5.0 7.0 0.00 0.08 0.01 94 1016.5
20260905210538 59 275 5.0 7.0 0.00 0.08 0.01 94 1016.5
20260905210025 58 261 3.0 8.0 0.00 0.08 0.01 94 1016.5
20260905205512 58 0 0.0 8.0 0.00 0.08 0.01 94 1016.5
20260905204959 58 0 2.0 8.0 0.00 0.08 0.01 94 1016.6
20260905204445 58 330 4.0 7.0 0.00 0.08 0.01 94 1016.6
20260905203932 58 303 4.0 7.0 0.00 0.08 0.01 94 1016.5
20260905203419 58 302 2.0 7.0 0.00 0.08 0.01 94 1016.5
20260905202906 59 301 1.0 7.0 0.00 0.08 0.01 94 1016.6
20260905200815 58 292 3.0 8.0 0.00 0.08 0.01 95 1016.7
20260905200301 58 299 6.0 8.0 0.00 0.08 0.01 95 1016.7
20260905195748 58 291 5.0 7.0 0.00 0.08 0.01 95 1016.7
20260905195235 57 291 5.0 7.0 0.00 0.08 0.01 95 1016.7
20260905194723 57 298 0.0 7.0 0.00 0.08 0.01 95 1016.8
20260905194209 58 291 6.0 7.0 0.00 0.08 0.01 94 1016.8
20260905193656 58 289 2.0 7.0 0.00 0.08 0.01 94 1016.8
20260905193143 59 309 7.0 9.0 0.00 0.08 0.01 94 1016.8
20260905192630 58 301 6.0 9.0 0.00 0.08 0.01 94 1016.8
20260905192117 59 308 5.0 9.0 0.00 0.08 0.01 95 1016.8
20260905191604 59 312 3.0 9.0 0.00 0.08 0.01 95 1016.8
20260905191051 59 235 4.0 9.0 0.00 0.08 0.01 95 1016.8
20260905190538 58 309 4.0 8.0 0.00 0.08 0.01 95 1016.7
20260905185512 58 333 0.0 7.0 0.00 0.09 0.01 95 1016.8
20260905184959 58 298 2.0 7.0 0.00 0.09 0.01 96 1016.7
20260905184446 57 0 0.0 8.0 0.00 0.09 0.01 95 1016.7
20260905183934 57 319 1.0 8.0 0.00 0.09 0.01 95 1016.8
20260905183420 57 317 2.0 8.0 0.00 0.09 0.01 95 1016.8
20260905182907 57 308 1.0 6.0 0.00 0.09 0.01 95 1016.7
20260905182354 57 0 0.0 4.0 0.00 0.09 0.01 95 1016.7
20260905181843 57 0 0.0 4.0 0.00 0.09 0.01 95 1016.7
20260905180815 57 0 0.0 3.0 0.00 0.09 0.01 96 1016.7
20260905180303 57 271 0.0 3.0 0.00 0.09 0.01 96 1016.8
20260905175749 57 0 0.0 3.0 0.00 0.10 0.01 95 1016.8
20260905174723 56 0 0.0 0.0 0.00 0.10 0.01 96 1016.8
20260905174210 56 0 0.0 0.0 0.00 0.10 0.01 95 1016.8
20260905173657 57 0 0.0 0.0 0.00 0.10 0.01 96 1016.8
20260905173144 56 0 0.0 5.0 0.00 0.10 0.01 95 1016.7
20260905172631 56 0 0.0 5.0 0.00 0.10 0.01 95 1016.7
20260905171605 56 0 0.0 0.0 0.00 0.10 0.01 96 1016.6
20260905171052 56 0 0.0 0.0 0.00 0.10 0.01 96 1016.6
20260905170539 55 0 0.0 0.0 0.00 0.10 0.01 96 1016.6
20260905170026 56 0 0.0 0.0 0.00 0.10 0.01 96 1016.6
20260905165515 55 0 0.0 0.0 0.00 0.15 0.01 96 1016.6
20260905165051 55 0 0.0 0.0 0.00 0.15 0.01 96 1016.6
20260905165000 55 0 0.0 0.0 0.00 0.15 0.01 96 1016.6
20260905164447 55 0 0.0 0.0 0.00 0.15 0.01 96 1016.6
20260905163934 55 0 0.0 0.0 0.00 0.15 0.01 95 1016.7
20260905163421 55 0 0.0 0.0 0.00 0.15 0.01 95 1016.7
20260905162909 56 0 0.0 0.0 0.00 0.15 0.01 95 1016.6
20260905162355 55 0 0.0 0.0 0.00 0.15 0.01 95 1016.6
20260905161843 56 0 0.0 0.0 0.00 0.15 0.01 96 1016.6
20260905161332 55 0 0.0 0.0 0.00 0.15 0.01 95 1016.6
20260905160816 56 0 0.0 0.0 0.00 0.15 0.01 95 1016.6
20260905160303 57 0 0.0 0.0 0.00 0.15 0.01 95 1016.6
20260905155750 56 0 0.0 0.0 0.00 0.19 0.01 96 1016.6
20260905155237 56 0 0.0 0.0 0.00 0.19 0.01 95 1016.6
20260905154724 56 0 0.0 0.0 0.00 0.19 0.01 95 1016.6
20260905154211 57 0 0.0 0.0 0.00 0.19 0.01 95 1016.7
20260905153658 56 0 0.0 0.0 0.00 0.19 0.01 95 1016.6
20260905153145 57 0 0.0 0.0 0.00 0.19 0.01 95 1016.6
20260905152632 56 0 0.0 0.0 0.00 0.19 0.01 95 1016.5
20260905151606 55 0 0.0 0.0 0.00 0.19 0.01 95 1016.5
20260905151053 56 0 0.0 0.0 0.00 0.19 0.01 95 1016.5
20260905150540 56 0 0.0 0.0 0.00 0.19 0.01 95 1016.5
20260905150027 55 0 0.0 0.0 0.00 0.19 0.01 95 1016.5
20260905145514 55 0 0.0 0.0 0.00 0.22 0.01 96 1016.5
20260905145001 55 0 0.0 0.0 0.00 0.22 0.01 96 1016.5
20260905143937 55 0 0.0 0.0 0.00 0.22 0.01 96 1016.4
20260905143422 55 0 0.0 0.0 0.00 0.22 0.01 96 1016.4
20260905142910 54 0 0.0 0.0 0.00 0.22 0.01 96 1016.4
20260905142356 54 0 0.0 0.0 0.00 0.22 0.01 96 1016.3
20260905141843 54 0 0.0 0.0 0.00 0.22 0.01 96 1016.3
20260905141332 54 0 0.0 0.0 0.00 0.22 0.01 96 1016.2
20260905140817 54 0 0.0 0.0 0.00 0.22 0.01 96 1016.2
20260905140304 54 0 0.0 0.0 0.00 0.22 0.01 95 1016.3
20260905135751 54 0 0.0 0.0 0.00 0.28 0.01 95 1016.3
20260905135238 54 0 0.0 0.0 0.00 0.28 0.01 95 1016.3
20260905134725 54 0 0.0 0.0 0.00 0.28 0.01 96 1016.3
20260905134212 54 0 0.0 0.0 0.00 0.28 0.01 95 1016.2
20260905133659 54 0 0.0 0.0 0.00 0.28 0.01 96 1016.2
20260905133146 54 0 0.0 0.0 0.00 0.28 0.01 95 1016.2
20260905132633 54 0 0.0 0.0 0.00 0.28 0.01 95 1016.1
20260905131607 54 0 0.0 0.0 0.00 0.28 0.01 95 1016.1
20260905131054 54 0 0.0 0.0 0.00 0.28 0.01 95 1016.1
20260905130541 54 0 0.0 0.0 0.00 0.28 0.01 95 1016.2
20260905130028 54 0 0.0 0.0 0.00 0.28 0.01 95 1016.2
20260905125515 54 0 0.0 0.0 0.00 0.34 0.01 95 1016.1
20260905125002 54 0 0.0 0.0 0.00 0.34 0.01 95 1016.1
20260905123936 54 0 0.0 0.0 0.00 0.34 0.01 95 1016.0
20260905123423 54 0 0.0 0.0 0.00 0.34 0.01 95 1016.1
20260905122910 54 0 0.0 0.0 0.00 0.34 0.01 95 1016.1
20260905122357 54 0 0.0 0.0 0.00 0.34 0.01 95 1016.0
20260905121844 54 0 0.0 0.0 0.01 0.34 0.01 95 1016.0
20260905121331 54 0 0.0 0.0 0.01 0.34 0.01 95 1015.9
20260905120305 54 0 0.0 0.0 0.01 0.34 0.01 95 1015.9
20260905115752 55 0 0.0 0.0 0.01 0.59 0.01 95 1015.9
20260905115239 55 0 0.0 0.0 0.01 0.59 0.01 95 1015.9
20260905114726 55 0 0.0 0.0 0.01 0.59 0.01 95 1015.9
20260905114213 54 0 0.0 0.0 0.01 0.59 0.01 95 1015.9
20260905113700 54 0 0.0 0.0 0.01 0.59 0.01 95 1015.9
20260905113147 54 0 0.0 0.0 0.01 0.59 0.01 95 1015.9
20260905112634 54 0 0.0 0.0 0.01 0.59 0.01 95 1015.8
20260905112121 54 0 0.0 0.0 0.01 0.59 0.01 95 1015.8
20260905111608 54 0 0.0 0.0 0.00 0.59 0.00 95 1015.8
20260905111055 55 0 0.0 0.0 0.00 0.59 0.00 95 1015.9
20260905110542 54 0 0.0 0.0 0.00 0.59 0.00 95 1015.8
20260905110029 55 0 0.0 0.0 0.00 0.59 0.00 95 1015.8
20260905105516 55 0 0.0 0.0 0.00 0.72 0.00 95 1015.8
20260905105003 55 0 0.0 0.0 0.00 0.72 0.00 95 1015.8
20260905104450 54 0 0.0 0.0 0.00 0.72 0.00 95 1015.8
20260905103937 54 0 0.0 0.0 0.00 0.72 0.00 95 1015.8
20260905103424 54 0 0.0 0.0 0.00 0.72 0.00 95 1015.8
20260905102911 55 0 0.0 0.0 0.00 0.72 0.00 95 1015.7
20260905102358 55 0 0.0 0.0 0.00 0.72 0.00 95 1015.7
20260905101845 55 0 0.0 0.0 0.00 0.72 0.00 95 1015.7
20260905101332 55 0 0.0 0.0 0.00 0.72 0.00 95 1015.7
20260905100819 54 0 0.0 0.0 0.00 0.72 0.00 95 1015.7
20260905100306 55 0 0.0 0.0 0.00 0.72 0.00 95 1015.7
20260905095753 55 0 0.0 0.0 0.00 0.79 0.00 95 1015.7
20260905095240 55 0 0.0 0.0 0.00 0.79 0.00 95 1015.7
20260905094727 54 0 0.0 0.0 0.00 0.79 0.00 95 1015.7
20260905094214 55 0 0.0 0.0 0.00 0.79 0.00 95 1015.7
20260905093701 54 0 0.0 0.0 0.00 0.79 0.00 95 1015.7
20260905093148 54 0 0.0 0.0 0.00 0.79 0.00 95 1015.6
20260905092635 54 0 0.0 0.0 0.00 0.79 0.00 95 1015.6
20260905092122 54 0 0.0 0.0 0.00 0.79 0.00 95 1015.7
20260905091610 54 0 0.0 0.0 0.00 0.79 0.00 95 1015.6
20260905091056 54 0 0.0 0.0 0.00 0.79 0.00 95 1015.5
20260905090543 54 0 0.0 0.0 0.00 0.79 0.00 95 1015.5
20260905090030 54 0 0.0 0.0 0.00 0.79 0.00 95 1015.5
20260905085517 54 0 0.0 0.0 0.00 0.81 0.00 95 1015.4
20260905085004 54 0 0.0 0.0 0.00 0.81 0.00 95 1015.5
20260905084451 54 0 0.0 0.0 0.00 0.81 0.00 95 1015.5
20260905083424 54 0 0.0 0.0 0.00 0.81 0.00 95 1015.5
20260905082912 54 0 0.0 0.0 0.00 0.81 0.00 95 1015.4
20260905082359 55 0 0.0 0.0 0.00 0.81 0.00 95 1015.4
20260905081846 55 0 0.0 0.0 0.00 0.81 0.00 95 1015.4
20260905081332 54 0 0.0 0.0 0.00 0.81 0.00 95 1015.3
20260905080820 54 0 0.0 0.0 0.00 0.81 0.00 95 1015.3
20260905080306 54 0 0.0 0.0 0.00 0.81 0.00 95 1015.3
20260905075754 55 0 0.0 0.0 0.00 0.83 0.00 95 1015.2
20260905075240 54 0 0.0 0.0 0.00 0.83 0.81 95 1015.1
20260905074729 54 0 0.0 0.0 0.00 0.83 0.81 95 1015.1
20260905073701 54 0 0.0 0.0 0.00 0.83 0.81 94 1015.1
20260905073149 55 0 0.0 0.0 0.00 0.83 0.81 94 1015.1
20260905072636 55 0 0.0 0.0 0.00 0.83 0.81 94 1015.1
20260905071609 54 0 0.0 0.0 0.00 0.83 0.81 94 1014.9
20260905071056 55 0 0.0 0.0 0.00 0.83 0.81 94 1014.9
20260905070543 54 0 0.0 0.0 0.00 0.83 0.81 94 1014.9
20260905070030 55 0 0.0 0.0 0.00 0.83 0.81 94 1014.9
20260905065517 55 0 0.0 0.0 0.00 1.04 0.81 94 1014.8
20260905065004 55 0 0.0 0.0 0.00 1.04 0.81 94 1014.8
20260905064451 55 0 0.0 0.0 0.00 1.04 0.81 94 1014.8
20260905063938 55 0 0.0 0.0 0.00 1.04 0.81 94 1014.8
20260905063425 55 0 0.0 0.0 0.00 1.04 0.81 94 1014.7
20260905062912 55 0 0.0 0.0 0.00 1.04 0.81 94 1014.7
20260905062359 55 0 0.0 0.0 0.00 1.04 0.81 94 1014.7
20260905061846 55 0 0.0 0.0 0.00 1.04 0.81 94 1014.7
20260905061333 55 0 0.0 0.0 0.00 1.04 0.81 94 1014.7
20260905060821 55 0 0.0 0.0 0.00 1.04 0.81 94 1014.6
20260905055754 55 0 0.0 0.0 0.00 1.17 0.81 94 1014.6
20260905055241 55 0 0.0 0.0 0.00 1.17 0.81 94 1014.7
20260905054728 55 0 0.0 0.0 0.00 1.17 0.81 94 1014.7
20260905054215 55 0 0.0 0.0 0.00 1.17 0.81 94 1014.6
20260905053702 55 0 0.0 0.0 0.00 1.17 0.81 94 1014.6
20260905053149 55 0 0.0 0.0 0.00 1.17 0.81 94 1014.6
20260905052636 55 0 0.0 0.0 0.00 1.17 0.81 94 1014.6
20260905052123 55 0 0.0 0.0 0.00 1.17 0.81 94 1014.6
20260905051610 55 0 0.0 0.0 0.00 1.17 0.81 94 1014.6
20260905051058 55 0 0.0 0.0 0.00 1.17 0.81 94 1014.5
20260905050544 55 0 0.0 0.0 0.00 1.17 0.81 94 1014.5
20260905050031 55 0 0.0 0.0 0.00 1.17 0.81 94 1014.5
20260905045005 55 0 0.0 0.0 0.00 1.26 0.81 94 1014.3
20260905044452 55 0 0.0 0.0 0.00 1.26 0.81 94 1014.3
20260905043939 56 0 0.0 0.0 0.00 1.26 0.81 94 1014.3
20260905043426 56 0 0.0 0.0 0.00 1.26 0.81 93 1014.3
20260905042913 55 0 0.0 0.0 0.00 1.26 0.81 93 1014.2
20260905042400 56 0 0.0 0.0 0.00 1.26 0.81 93 1014.2
20260905041847 55 0 0.0 0.0 0.00 1.26 0.81 93 1014.2
20260905041334 56 0 0.0 0.0 0.00 1.26 0.81 93 1014.1
20260905040821 55 0 0.0 0.0 0.00 1.26 0.81 93 1014.1
20260905040308 56 0 0.0 0.0 0.00 1.26 0.81 93 1014.1
20260905035756 56 0 0.0 0.0 0.00 1.37 0.81 93 1014.1
20260905035242 56 0 0.0 0.0 0.00 1.37 0.81 93 1014.1
20260905034729 56 0 0.0 0.0 0.01 1.37 0.81 93 1014.0
20260905034216 56 0 0.0 0.0 0.01 1.37 0.81 93 1013.9